Regional Weather Roundup
Issued by NWS Charleston, SC

Current Version | Previous Version | Graphics & Text | Print | Product List | Glossary On
Versions: 1 2 3 4 5 6 7 8 9 10 11 12 13 14 15 16 17 18 19 20 21 22 23 24 25 26 27 28 29 30 31 32 33 34 35 36 37 38 39 40 41 42 43 44 45 46 47 48 49 50
000 ASUS42 KCHS 240828 RWRCHS REGIONAL WEATHER ROUNDUP NATIONAL WEATHER SERVICE CHARLESTON SC 400 AM EDT SUN JUL 24 2016 NOTE: "FAIR" INDICATES FEW OR NO CLOUDS BELOW 12,000 FEET WITH NO SIGNIFICANT WEATHER AND/OR OBSTRUCTIONS TO VISIBILITY. NOT ALL STATIONS ARE QUALITY CONTROLLED. USE DATA WITH CAUTION... ESPECIALLY DEWPOINT OBSERVATIONS. SCZ027-030-031-034>040-042>050-240900- ...SOUTHEAST SOUTH CAROLINA... CITY SKY/WX TMP DP RH WIND PRES REMARKS N CHARLESTON PTCLDY 80 75 84 CALM 30.01S WATERFRONT PRK N/A 83 78 84 VRB3 29.99S HX 93 MOUNT PLEASANT FAIR 79 77 94 CALM 30.01F JOHNS ISLAND FAIR 82 79 89 CALM 30.00F HX 93 PINOPOLIS N/A 81 75 83 VRB2 29.95S MONCKS CORNER FAIR 73 72 94 CALM 30.00F SUMMERVILLE NOT AVBL BEAUFORT MCAS CLEAR 80 76 87 S3 30.01S BEAUFORT ARPT FAIR 81 77 89 SW3 30.00F HILTON HEAD IS CLEAR 82 77 83 VRB5 30.01F HX 91 WALTERBORO MOSUNNY 79 79 100 CALM 30.02F ALLENDALE FAIR 77 73 88 CALM 30.00F ...SOUTHERN MIDLANDS AND PEE DEE... CITY SKY/WX TMP DP RH WIND PRES REMARKS GEORGETOWN FAIR 75 73 94 CALM 30.02F KINGSTREE FAIR 77 72 83 CALM 30.00F ORANGEBURG CLEAR 77 72 84 CALM 30.00F BARNWELL NOT AVBL AIKEN FAIR 72 68 88 S3 30.05S MANNING FAIR 79 72 78 CALM 30.00F COLUMBIA CLEAR 76 72 87 CALM 29.99F SUMTER CLEAR 77 73 87 S6 29.98F FLORENCE CLEAR 78 75 90 S5 30.00F MYRTLE BEACH MOCLDY 81 72 74 SW5 30.02F N MYRTLE BEACH PTCLDY 81 77 88 SW3 30.01S $$ GAZ063-065-086>088-099>101-113>116-118-119-134>141-150-240900- ...SOUTHEAST GEORGIA... CITY SKY/WX TMP DP RH WIND PRES REMARKS SAVANNAH ARPT CLEAR 79 73 82 SW8 30.01F HUNTER AAF CLEAR 79 78 96 SW5 29.99F FORT STEWART PTCLDY 77 72 85 S2 29.99F STATESBORO CLEAR 75 74 95 CALM 30.00F SYLVANIA NOT AVBL CLAXTON FAIR 74 73 99 CALM 30.00F ...CSRA...CENTRAL AND FAR SOUTHEAST GEORGIA... CITY SKY/WX TMP DP RH WIND PRES REMARKS THOMSON CLEAR 76 75 96 CALM 30.05F AUGUSTA-BUSH CLEAR 72 71 97 CALM 30.00F AUGUSTA-DANIEL CLEAR 78 71 79 S3 30.02F SWAINSBORO FAIR 72 70 94 CALM 30.02F VIDALIA MOCLDY 75 70 83 CALM 30.01F EASTMAN FAIR 75 75 100 CALM 30.03F HAZLEHURST FAIR 75 75 100 CALM 30.00S ALMA PTCLDY 73 72 96 CALM 30.00F WAYCROSS PTCLDY 78 75 92 CALM 30.00F JESUP FAIR 75 75 100 CALM 30.00F BAXLEY FAIR 73 73 100 CALM 30.00F BRUNSWICK PTCLDY 79 77 94 SW3 30.01F SAINT SIMONS PTCLDY 81 75 82 SW5 30.01S $$ SCZ027-028-034-036>038-045-046-048>050-GAZ119-141-240900- ...LAKE AND SUPPLEMENTAL COASTAL OBSERVATIONS... STATION/POSITION TIME TEMP WIND PRES WAVE SWELL AIR SEA DIR/SP/G HT/PER HT/PER/DIR (UTC) (F) (DEG/KT/KT) (MB) (FT/S) (FT/S/D) WINYAH BAY 0700 80 280/ 2 1016.0 LAKE MURRAY 0700 83 220/ 1/ 3 1015.6S ACE BASIN NERRS 0700 81 CALM 1016.0F FORT PULASKI 0800 81 88 240/ 4/ 5 1016.6F SAPELO ISLAND 0800 81 200/ 5 1016.0F $$ ANZ835-935-AMZ111-154-330-350-352-354-370-450-454-472-240900- ...C-MAN AND BUOY OBSERVATIONS... STATION/POSITION TIME TEMP WIND PRES WAVE SWELL AIR SEA DIR/SP/G HT/PER HT/PER/DIR (UTC) (F) (DEG/KT/KT) (MB) (FT/S) (FT/S/D) BUOY 41004 0750 85 86 220/ 14/ 14 1015.9S 3/ 8 2/130/ 8 BUOY 41008 0750 85 86 210/ 12/ 14 1016.1F 3/ 9 2/100/ 9 FOLLY BEACH CMAN 0800 84 220/ 10/ 14 1016.4R CAPERS NEARSHORE 0808 84 83 240/ 12/ 16 1016.1F FRIPP NEARSHORE 0808 85 86 230/ 14/ 17 1015.3F STATION/POSITION TIME TEMP WIND PRES WAVE SWELL AIR SEA DIR/SP/G HT/PER HT/PER/DIR (UTC) (F) (DEG/KT/KT) (MB) (FT/S) (FT/S/D) 5E ST. MARYS GA 0801 86 N/A 3/ 9 FRYING PAN BUOY 0800 85 85 230/ 10/ 14 1016.1F BUOY 41025 0750 84 85 230/ 14/ 17 1016.2F 3/ 4 2/120/ 9 CAPE LOOKOUT NC 0800 83 220/ 7/ 10 1016.1F BUOY 41002 0750 82 84 290/ 2/ 2 1016.9S 2/ 8 2/120/ 8 BUOY 41010 0720 84 87 CALM / 2 1016.9F ST AUGUSTINE FL 0800 77 86 230/ 5/ 6 1017.3F $$

USA.gov is the U.S. government's official web portal to all federal, state and local government web resources and services.